Temperature
18 18 18 18 18 18 18 18 18 18 18 18 18 18 18 18 18 18 18 18 18 18 18 18 17 17 17 17 17 17 17 17 17 17 16 16 16 16 16 16 16 16 16
18 18 18 18 18 18 18 18 18 18 18 18 18 18 18 18 18 18 18 18 18 18 18 18 17 17 17 17 17 17 17 17 17 17 17 16 16 16 16 16 16 16 16
18 18 18 18 18 18 18 18 18 18 18 18 18 18 18 18 18 18 18 18 18 18 18 18 17 17 17 17 17 17 17 17 17 17 17 16 16 16 16 16 16 16 16
18 18 18 18 18 18 18 18 18 18 18 18 18 18 18 18 18 18 18 18 18 18 18 18 17 17 17 17 17 17 17 17 17 17 17 16 16 16 16 16 16 16 16
19 19 18 18 18 18 18 18 18 18 18 18 18 18 18 18 18 18 18 18 18 18 18 17 17 17 17 17 17 17 17 17 17 17 17 16 16 16 16 16 16 16 16
19 19 18 18 18 18 18 18 18 18 18 18 18 18 18 18 18 18 18 18 18 18 18 18 18 17 17 17 17 17 17 17 17 17 17 17 16 16 16 16 16 16 16
19 19 19 18 18 18 18 18 18 18 18 18 18 18 18 18 18 18 18 18 18 18 18 18 18 17 17 17 17 17 17 17 17 17 17 17 16 16 16 16 16 16 16
19 19 19 18 18 18 18 18 18 18 18 18 18 18 18 18 18 18 18 18 18 17 17 17 17 17 17 17 17 17 17 17 17 17 17 16 16 16 16 16 16 16 15
19 19 18 18 18 18 18 18 18 18 18 18 18 18 18 18 17 18 18 18 18 17 17 17 17 17 17 17 17 17 17 17 17 16 16 16 16 16 16 16 15 16 16
19 18 18 18 18 18 18 18 18 18 18 18 18 18 18 17 17 17 17 17 17 17 17 17 17 17 17 17 17 17 17 17 16 16 16 16 16 16 16 16 16 16 15
18 18 18 18 18 18 18 18 18 18 18 18 18 18 17 17 17 17 17 17 17 17 17 17 17 17 17 17 16 16 16 16 16 16 16 16 16 16 16 16 15 15 15
18 18 18 18 18 18 18 18 18 18 18 18 17 17 17 17 17 17 17 17 17 17 17 17 17 16 16 16 16 16 16 16 16 16 16 16 16 15 15 15 15 15 15
18 18 18 18 18 18 18 18 18 18 18 18 17 17 17 17 17 17 17 17 16 16 16 16 16 16 16 16 16 16 16 16 16 15 15 15 15 15 15 15 15 15 15
18 18 18 18 18 18 18 18 18 17 17 17 17 17 17 17 17 17 17 17 16 16 16 16 16 16 15 15 15 15 15 15 15 15 15 15 15 15 14 14 14 14 14
18 18 18 18 18 18 18 17 17 17 17 17 17 17 17 17 17 17 17 17 16 16 15 15 15 15 15 15 15 15 15 15 14 14 14 14 14 14 14 14 14 14 14
18 18 18 18 18 17 17 17 17 17 17 17 17 17 17 17 17 16 16 16 16 16 15 15 15 15 14 14 14 14 14 14 14 14 14 13 13 13 13 13 14 14 13
18 17 17 17 17 17 17 17 17 17 17 17 17 17 17 16 16 16 16 16 16 16 15 14 14 14 14 14 14 14 14 13 13 13 13 13 13 13 13 13 13 13 13
17 17 17 17 17 17 17 17 17 17 17 16 16 16 16 16 16 16 16 16 15 15 15 14 14 14 14 13 13 13 13 13 13 13 13 12 12 12 12 12 12 12 12
17 17 17 17 17 17 17 16 16 16 16 16 16 16 16 16 15 15 15 15 15 15 15 14 14 13 13 13 13 13 12 12 12 12 12 12 12 12 12 11 11 11 11
17 17 17 17 16 16 16 16 16 16 16 16 15 15 15 15 15 15 15 15 15 14 14 14 13 13 13 12 12 12 12 12 12 12 11 11 11 11 11 11 11 11 11
17 16 16 16 16 16 15 15 15 15 15 15 15 15 15 14 15 15 14 14 14 14 14 13 13 12 12 12 12 12 11 11 11 11 11 11 11 10 10 10 10 10 10
16 16 16 16 15 15 15 15 15 15 15 15 14 14 14 14 14 14 14 14 13 13 13 13 13 12 12 12 11 11 11 11 11 10 10 10 10 10 10 10 10 9 9
16 16 15 15 15 14 14 14 14 14 14 14 14 14 13 13 13 13 13 13 13 12 12 12 12 12 11 11 11 11 11 11 10 10 10 10 10 9 9 9 9 9 9
16 15 15 15 14 14 14 14 14 14 14 13 13 13 13 13 13 13 13 12 12 12 12 11 11 11 11 11 11 11 10 10 10 10 10 9 9 9 9 9 9 9 9
15 15 15 15 14 14 14 14 14 14 13 13 13 12 12 12 12 12 12 12 11 11 11 11 11 11 10 10 10 10 10 10 10 9 9 9 9 9 9 8 8 8 8
15 15 14 14 14 14 13 13 13 13 13 13 12 12 12 11 11 11 11 11 11 11 10 10 10 10 10 10 10 10 10 10 9 9 9 9 8 8 8 8 8 8 8
Wind_Speed
4 3 3 3 3 3 3 2 1 1 1 1 2 4 5 7 9 10 11 15 15 15 15 15 14 14 14 13 13 13 13 13 13 13 12 13 12 12 12 12 11 11 11
5 4 2 2 2 2 3 2 1 1 0 1 1 2 4 6 8 10 10 12 15 15 15 14 14 14 14 14 14 14 14 14 14 14 14 13 13 13 13 13 13 13 12
6 4 2 2 2 3 2 1 1 1 1 1 1 0 2 4 7 8 9 10 11 13 14 14 14 13 13 14 13 13 13 14 14 14 14 14 14 14 14 14 14 13 13
6 4 2 2 2 2 1 1 1 1 0 0 0 0 1 2 5 7 9 9 9 9 12 13 13 12 12 13 13 14 13 13 14 15 15 15 14 15 15 15 14 14 14
7 5 3 2 1 1 0 1 1 1 1 0 0 1 0 1 3 5 6 8 9 9 10 11 13 12 12 12 14 15 15 15 15 15 16 16 16 16 16 16 16 16 16
6 4 3 2 1 1 0 1 1 1 1 1 0 1 1 1 1 2 4 6 7 9 10 10 10 11 12 12 12 13 14 15 15 15 16 17 17 17 17 17 17 17 17
4 3 2 2 1 1 1 1 1 1 0 1 1 2 2 1 1 2 2 3 4 6 7 9 9 8 8 11 12 12 13 14 15 15 16 17 17 18 17 17 18 18 17
4 3 2 2 1 1 0 0 1 1 0 1 2 1 2 3 2 1 2 3 3 3 4 7 7 8 7 6 8 9 11 13 14 15 15 15 17 18 18 18 17 16 16
3 2 3 2 2 2 1 1 1 2 1 1 1 3 2 2 2 2 1 1 2 2 2 3 5 6 6 5 6 7 9 10 12 13 13 13 14 16 16 16 16 16 15
2 2 2 2 2 1 1 1 1 2 2 1 2 2 2 3 2 1 2 1 1 2 2 2 3 3 5 5 5 4 5 7 8 8 9 10 11 13 13 13 13 13 14
0 1 1 1 1 1 1 1 1 1 1 2 2 1 1 0 1 2 1 2 1 0 1 1 1 1 2 4 3 2 2 4 5 5 5 5 5 6 8 9 10 11 12
0 0 1 1 1 1 1 1 1 1 2 2 1 1 1 1 1 2 2 1 1 1 1 0 1 1 2 2 2 3 3 3 3 3 3 3 3 3 4 5 7 8 9
1 2 1 1 1 1 1 1 1 1 1 1 1 1 1 2 2 2 3 1 0 1 1 1 1 1 2 3 2 3 3 3 4 3 3 2 2 1 1 2 2 3 3
2 2 1 2 2 1 1 1 1 1 1 1 1 1 1 1 1 2 3 3 1 1 1 1 2 3 3 4 5 5 6 5 4 3 3 2 1 1 1 1 1 1 1
1 1 1 1 1 1 1 1 0 1 1 1 0 0 1 0 1 1 2 3 3 1 0 1 2 3 4 6 7 7 7 7 7 6 5 4 3 3 3 3 3 2 2
1 1 1 1 1 0 0 1 1 1 2 2 2 3 2 1 1 1 1 1 2 3 2 1 1 1 4 6 7 8 8 9 9 8 8 7 7 6 5 5 5 4 4
1 1 1 1 2 2 2 3 3 3 4 4 4 4 3 3 3 2 2 2 3 4 4 2 2 3 4 5 6 7 8 8 9 10 11 11 10 9 8 7 7 6 6
2 2 3 3 4 4 4 5 5 5 6 5 5 5 4 4 4 3 3 4 3 3 5 4 2 3 4 3 4 5 6 8 8 10 11 10 10 10 9 8 7 7 7
3 4 5 6 5 5 5 5 6 6 6 6 5 5 4 5 5 4 4 4 4 5 4 5 3 2 3 3 4 5 6 5 7 8 9 9 8 9 9 7 7 7 7
5 5 6 6 6 6 6 6 6 6 6 6 6 6 5 5 5 5 5 5 5 5 5 5 4 3 3 2 3 3 3 3 3 5 7 7 6 7 7 6 6 6 6
7 6 6 6 6 6 5 6 6 6 6 6 6 6 7 10 10 7 6 4 5 5 5 5 4 3 3 2 2 1 2 2 3 3 3 3 4 5 5 6 6 6 6
6 7 7 6 6 6 8 9 7 6 6 6 6 5 7 9 11 12 12 10 7 6 5 4 3 3 1 1 2 2 2 2 1 2 2 2 2 2 3 4 5 5 5
7 7 6 6 6 7 9 9 9 6 6 5 5 5 6 7 8 7 10 12 11 10 7 5 5 2 2 1 3 3 2 2 1 1 1 1 2 2 3 4 5 5 5
6 6 6 6 6 6 9 9 9 6 6 5 5 4 5 5 6 7 8 8 7 6 6 5 4 3 2 2 3 3 3 2 2 2 2 1 2 2 3 4 4 4 4
6 6 5 6 6 5 8 9 9 6 6 6 6 6 6 6 7 9 8 7 7 6 8 10 9 8 8 7 6 4 3 3 2 2 2 1 1 2 2 3 5 5 4
6 6 5 5 5 5 7 9 8 6 6 5 6 6 8 8 8 8 6 6 6 3 4 6 7 8 8 8 8 4 3 3 1 1 2 1 1 1 2 2 3 5 4
Wind_Direction
163 167 187 200 210 209 199 208 241 256 314 319 198 170 165 169 171 174 180 185 187 189 190 192 193 195 195 196 197 197 198 196 195 195 197 197 196 194 195 194 194 194 195
158 156 152 164 184 198 204 186 181 182 71 84 89 155 168 173 175 174 180 188 193 196 197 198 200 202 203 202 203 205 205 203 202 203 204 205 204 202 200 200 202 203 204
154 152 153 164 181 183 171 149 98 82 85 69 61 72 162 168 175 176 179 183 193 202 204 205 207 207 206 205 206 208 209 209 208 208 209 210 209 208 206 207 209 210 211
161 151 159 187 194 170 139 135 136 104 64 69 30 309 121 158 168 178 183 188 193 202 208 209 210 212 213 213 213 213 214 214 214 213 213 213 214 212 210 210 213 214 215
174 161 167 197 189 137 154 187 128 152 176 254 280 278 184 174 186 183 186 191 194 200 204 210 214 216 220 222 222 221 219 219 219 219 218 218 218 218 217 216 217 220 221
183 172 171 191 167 124 209 161 156 161 190 204 280 338 322 228 193 190 193 188 194 202 205 209 218 224 228 229 230 229 226 223 222 223 223 223 223 223 223 222 222 224 226
194 184 167 158 129 154 214 196 143 115 280 117 64 2 348 338 256 210 186 178 195 203 201 210 215 218 230 234 234 234 232 230 226 225 227 228 228 226 224 225 226 227 229
191 179 168 166 170 171 322 318 138 150 254 139 134 92 349 346 340 268 181 179 189 191 193 209 217 218 225 232 237 236 236 235 232 230 229 229 229 228 226 226 228 228 228
192 184 173 177 189 177 208 249 203 173 210 249 181 155 159 233 295 324 281 194 177 153 184 200 207 216 222 230 242 243 236 235 235 234 234 233 231 230 229 228 229 227 227
219 195 182 188 185 170 215 260 212 193 175 236 256 213 188 175 176 296 335 22 163 169 185 203 202 200 210 228 238 237 236 236 236 234 235 235 232 229 226 228 231 232 230
292 192 159 156 175 191 221 279 288 203 182 197 215 222 228 182 153 164 275 315 347 284 184 179 131 142 201 215 213 208 222 223 222 226 230 234 231 227 229 232 234 236 234
283 249 178 193 187 192 223 252 261 239 218 210 201 163 163 172 197 174 203 236 262 312 36 56 90 105 114 142 167 167 192 193 192 201 211 224 233 239 241 245 245 243 242
225 243 231 229 229 221 235 245 264 275 246 225 212 201 186 199 178 162 159 187 202 298 27 31 32 81 109 103 115 141 135 129 134 148 165 178 189 210 247 268 278 269 258
211 219 220 233 226 210 217 205 243 277 290 227 233 212 162 204 147 150 158 153 132 12 31 19 18 47 77 83 85 93 86 89 98 107 116 120 121 109 88 67 47 36 37
200 199 213 221 229 204 173 141 147 312 17 21 1 97 101 51 120 142 159 162 160 163 27 27 35 41 75 79 78 82 82 80 79 76 72 67 68 78 85 86 81 63 42
175 121 101 129 138 122 90 104 65 33 64 42 53 59 50 38 54 57 75 91 136 155 140 54 49 50 75 79 73 77 79 76 73 75 72 68 69 73 72 74 79 77 69
144 143 125 109 95 86 78 77 70 64 62 48 46 58 47 49 54 47 52 70 87 114 123 70 49 59 62 76 72 73 73 71 69 72 73 70 67 65 63 62 63 66 65
98 106 100 90 87 78 72 75 74 68 68 56 45 54 44 54 53 47 60 73 83 94 120 114 59 50 64 81 79 76 75 73 75 73 72 71 68 64 61 57 55 57 60
84 81 81 79 77 74 73 73 76 73 68 59 53 57 46 57 55 54 64 73 79 84 90 109 84 57 64 73 71 70 71 65 70 70 68 66 63 60 57 54 55 55 57
85 82 80 80 77 76 77 77 78 76 71 62 57 58 53 60 63 66 69 73 86 87 87 95 87 65 62 58 72 72 60 38 48 60 56 56 53 52 48 45 49 52 54
89 86 85 79 76 80 82 86 83 83 77 69 61 59 64 70 66 67 75 79 91 91 91 94 89 71 54 57 62 74 93 62 34 38 40 33 33 29 26 28 37 43 45
86 84 84 82 77 79 82 82 85 81 79 78 72 61 65 62 63 63 67 72 87 99 104 98 89 93 76 73 86 101 110 86 16 328 52 13 24 6 350 13 22 27 31
90 85 85 85 82 77 81 83 82 84 80 76 74 71 74 65 61 64 62 61 61 69 90 113 112 121 127 149 123 104 106 109 168 271 88 10 348 330 315 356 10 14 19
98 93 85 85 84 77 79 81 81 78 75 69 70 80 82 65 67 75 73 63 55 50 61 80 105 109 115 132 139 145 142 106 45 8 78 68 327 318 320 328 341 347 359
97 90 87 88 86 72 74 86 84 78 74 59 55 66 78 73 69 79 80 74 60 44 56 67 70 69 70 76 91 93 81 80 47 348 6 89 332 331 331 327 341 341 337
109 101 89 83 85 73 72 85 86 89 80 66 52 50 60 71 70 76 85 87 77 53 55 54 49 48 50 54 61 83 120 113 108 341 320 67 357 15 353 324 334 349 348
Height
1555 1555 1556 1557 1557 1558 1559 1560 1560 1561 1561 1561 1561 1561 1562 1562 1562 1563 1563 1563 1564 1564 1565 1565 1565 1565 1566 1567 1567 1568 1568 1569 1570 1571 1572 1573 1573 1574 1575 1576 1577 1578 1579
1556 1556 1557 1557 1558 1558 1559 1560 1560 1561 1561 1561 1561 1561 1561 1561 1562 1562 1562 1563 1563 1564 1564 1564 1565 1565 1565 1565 1566 1567 1567 1568 1569 1569 1570 1571 1572 1573 1574 1575 1576 1576 1577
1557 1557 1557 1558 1558 1559 1559 1560 1560 1560 1561 1561 1560 1560 1560 1561 1561 1561 1562 1562 1562 1563 1563 1563 1564 1564 1564 1564 1565 1565 1566 1567 1567 1568 1569 1570 1570 1571 1572 1573 1574 1575 1575
1557 1558 1558 1558 1559 1559 1559 1559 1560 1560 1560 1560 1560 1560 1560 1560 1560 1560 1561 1561 1561 1562 1562 1562 1562 1563 1563 1563 1563 1564 1564 1565 1565 1566 1567 1567 1568 1569 1570 1571 1572 1572 1573
1558 1558 1558 1558 1558 1558 1559 1559 1559 1559 1559 1559 1559 1559 1559 1559 1559 1559 1559 1560 1560 1561 1561 1561 1561 1561 1561 1561 1561 1562 1562 1562 1563 1563 1564 1565 1566 1567 1567 1568 1569 1570 1571
1557 1557 1558 1558 1558 1558 1558 1558 1558 1558 1558 1558 1558 1558 1558 1558 1558 1558 1559 1559 1559 1560 1560 1560 1560 1560 1559 1559 1559 1560 1560 1560 1560 1561 1561 1562 1563 1564 1564 1565 1566 1567 1568
1557 1557 1557 1557 1558 1558 1557 1557 1557 1556 1556 1557 1556 1556 1556 1557 1557 1557 1557 1557 1558 1558 1558 1558 1558 1558 1558 1558 1558 1558 1557 1557 1558 1558 1558 1559 1560 1560 1561 1562 1562 1563 1564
1556 1556 1556 1557 1557 1557 1556 1556 1556 1555 1555 1555 1555 1555 1555 1556 1555 1555 1555 1555 1556 1556 1556 1556 1556 1556 1556 1556 1556 1555 1555 1555 1555 1555 1556 1556 1556 1557 1557 1558 1559 1559 1560
1556 1555 1555 1555 1555 1555 1555 1554 1554 1554 1553 1554 1554 1554 1554 1553 1554 1554 1553 1554 1554 1554 1554 1554 1554 1554 1554 1553 1553 1553 1553 1553 1553 1553 1553 1553 1553 1553 1553 1554 1555 1555 1556
1554 1554 1554 1554 1553 1553 1553 1553 1552 1552 1552 1551 1552 1552 1553 1552 1552 1552 1552 1551 1551 1551 1551 1551 1551 1551 1551 1551 1551 1550 1550 1550 1550 1550 1550 1550 1549 1549 1550 1550 1551 1551 1551
1552 1552 1552 1552 1551 1551 1551 1551 1551 1550 1549 1549 1549 1549 1550 1550 1550 1550 1550 1550 1550 1549 1549 1549 1549 1549 1549 1548 1548 1548 1548 1548 1548 1548 1547 1547 1547 1546 1547 1547 1547 1547 1547
1551 1551 1551 1550 1550 1550 1549 1549 1548 1548 1547 1547 1547 1547 1547 1548 1548 1548 1548 1547 1547 1547 1547 1547 1547 1547 1547 1546 1546 1546 1546 1545 1545 1545 1545 1544 1544 1544 1543 1543 1543 1543 1543
1549 1549 1549 1549 1548 1548 1547 1547 1546 1545 1545 1544 1545 1545 1545 1546 1546 1546 1546 1545 1545 1545 1545 1545 1545 1545 1545 1545 1544 1544 1544 1543 1543 1543 1543 1542 1541 1541 1540 1540 1540 1540 1540
1547 1547 1547 1547 1547 1546 1546 1545 1545 1544 1543 1542 1543 1543 1543 1543 1544 1544 1544 1543 1543 1543 1543 1544 1543 1543 1543 1543 1543 1543 1542 1542 1542 1541 1541 1540 1540 1539 1538 1537 1537 1537 1537
1545 1545 1545 1545 1545 1544 1544 1544 1543 1543 1542 1541 1541 1541 1541 1541 1542 1542 1541 1541 1542 1541 1542 1542 1542 1542 1542 1542 1542 1542 1541 1541 1541 1540 1539 1539 1538 1537 1536 1535 1535 1534 1534
1544 1544 1544 1543 1543 1543 1543 1543 1542 1541 1541 1540 1540 1540 1539 1539 1539 1539 1539 1539 1539 1540 1540 1541 1541 1541 1541 1541 1541 1541 1541 1540 1539 1539 1538 1537 1536 1535 1534 1534 1533 1532 1531
1542 1542 1542 1542 1542 1542 1542 1542 1541 1541 1540 1540 1539 1539 1538 1538 1538 1538 1537 1537 1537 1538 1538 1539 1540 1540 1540 1540 1540 1540 1540 1539 1539 1538 1538 1537 1536 1534 1533 1533 1532 1531 1530
1541 1541 1542 1541 1541 1541 1541 1541 1540 1540 1539 1539 1539 1538 1538 1538 1537 1537 1536 1535 1535 1537 1537 1538 1539 1539 1539 1540 1540 1540 1539 1539 1539 1538 1537 1536 1535 1534 1533 1532 1531 1530 1528
1541 1541 1541 1541 1541 1541 1541 1540 1540 1540 1539 1539 1538 1538 1537 1537 1537 1536 1536 1536 1536 1537 1537 1537 1538 1539 1539 1540 1540 1540 1539 1539 1539 1538 1537 1536 1535 1534 1533 1532 1531 1529 1528
1541 1541 1541 1541 1541 1541 1541 1540 1540 1539 1539 1538 1538 1538 1537 1537 1537 1536 1536 1536 1536 1536 1537 1538 1538 1538 1539 1539 1539 1539 1539 1539 1539 1538 1538 1537 1536 1535 1533 1532 1531 1529 1528
1541 1541 1541 1541 1541 1541 1541 1540 1540 1539 1539 1538 1538 1537 1537 1537 1537 1537 1536 1536 1536 1537 1537 1537 1538 1538 1538 1539 1539 1539 1539 1539 1539 1538 1538 1537 1536 1535 1534 1532 1531 1530 1529
1542 1542 1542 1542 1542 1542 1542 1541 1541 1540 1539 1539 1538 1538 1538 1538 1537 1537 1537 1537 1537 1537 1537 1537 1537 1538 1538 1539 1539 1539 1539 1538 1538 1539 1537 1537 1536 1535 1534 1533 1532 1530 1529
1543 1543 1543 1543 1543 1543 1543 1543 1542 1541 1541 1540 1539 1539 1539 1539 1539 1538 1538 1538 1538 1538 1539 1538 1538 1538 1538 1539 1539 1539 1539 1538 1538 1538 1537 1536 1536 1535 1534 1533 1532 1531 1530
1543 1544 1544 1544 1544 1544 1545 1544 1544 1543 1542 1541 1541 1541 1541 1540 1540 1540 1539 1539 1539 1539 1539 1539 1539 1539 1539 1539 1539 1540 1539 1539 1539 1538 1538 1537 1536 1535 1534 1533 1532 1531 1529
1544 1545 1545 1546 1546 1546 1546 1545 1545 1544 1543 1543 1543 1542 1542 1542 1542 1542 1541 1540 1540 1540 1541 1541 1540 1540 1540 1540 1540 1539 1539 1538 1538 1538 1537 1536 1535 1534 1534 1533 1531 1530 1528
1545 1546 1546 1547 1547 1547 1547 1547 1546 1545 1545 1544 1544 1544 1544 1544 1544 1543 1542 1542 1541 1542 1542 1542 1541 1541 1541 1540 1540 1540 1539 1538 1537 1537 1537 1536 1535 1534 1532 1532 1530 1529 1527